Location: Boćki
(52.6512°N, 23.0459°E)
Time: 19:10:16
(UTC+01:00)

ISS - Visible Passes

Search period start: 22 February 2018 00:00
Search period end: 04 March 2018 00:00
Orbit: 402 x 407 km, 51.6° (Epoch: 23 February)

Date Brightness Start Highest point End Pass type
(mag) Time Alt. Az. Time Alt. Az. Time Alt. Az.
27 Feb -0.9 05:35:13 10° S 05:37:10 15° SE 05:39:07 10° ESE visible
01 Mar -1.8 05:26:00 10° SSW 05:28:44 25° SSE 05:31:29 10° E visible
02 Mar -1.3 04:34:23 10° S 04:36:37 17° SE 04:38:51 10° ESE visible
03 Mar -1.0 03:44:04 11° SSE 03:44:33 11° SE 03:45:36 10° ESE visible
03 Mar -2.7 05:17:17 10° SW 05:20:22 39° SSE 05:23:27 10° E visible
